SWA1942 KTPA-KBNA

Flight info

Callsign SWA1942
Flight time 1h 34m
Altitude 32000
Route ENDED2 LACEN BRUTS Q118 THRSR SWFFT3
Aircraft B737/M-SDE2E3FGHIRWXY/LB1

Departure

Time 2026-05-06 02:12
Airport Tampa International Airport (KTPA)

Arrival

Time 2026-05-06 03:47
Airport Nashville International Airport (KBNA)
Time Latitude Longitude Altitude Speed Heading
2026-05-06 01:48 27.98260 -82.53123 42 ft 0 kts 272°
2026-05-06 01:59 27.98260 -82.53107 42 ft 2 kts 272°
2026-05-06 01:59 27.98259 -82.53088 42 ft 2 kts 272°
2026-05-06 02:00 27.98259 -82.53070 42 ft 2 kts 272°
2026-05-06 02:00 27.98258 -82.53051 37 ft 2 kts 272°
2026-05-06 02:00 27.98258 -82.53050 37 ft 0 kts 272°
2026-05-06 02:03 27.98257 -82.53063 24 ft 1 kts 252°
2026-05-06 02:03 27.98247 -82.53063 24 ft 1 kts 180°
2026-05-06 02:04 27.98238 -82.53066 33 ft 1 kts 194°
2026-05-06 02:04 27.98234 -82.53066 49 ft 0 kts 190°
2026-05-06 02:05 27.98219 -82.53067 41 ft 6 kts 182°
2026-05-06 02:05 27.98180 -82.53055 42 ft 6 kts 154°
2026-05-06 02:05 27.98144 -82.53027 41 ft 7 kts 135°
2026-05-06 02:05 27.98115 -82.52981 40 ft 7 kts 132°
2026-05-06 02:06 27.98061 -82.52969 40 ft 9 kts 181°
2026-05-06 02:06 27.97984 -82.52970 41 ft 13 kts 182°
2026-05-06 02:06 27.97888 -82.52975 41 ft 15 kts 183°
2026-05-06 02:06 27.97775 -82.52975 41 ft 17 kts 183°
2026-05-06 02:07 27.97659 -82.52983 41 ft 16 kts 183°
2026-05-06 02:07 27.97546 -82.52987 41 ft 16 kts 181°
2026-05-06 02:07 27.97438 -82.52991 40 ft 15 kts 181°
2026-05-06 02:07 27.97335 -82.52994 40 ft 15 kts 182°
2026-05-06 02:08 27.97235 -82.52998 40 ft 14 kts 182°
2026-05-06 02:08 27.97140 -82.53000 38 ft 13 kts 180°
2026-05-06 02:08 27.96998 -82.53004 37 ft 24 kts 181°
2026-05-06 02:08 27.96837 -82.53011 40 ft 23 kts 182°
2026-05-06 02:09 27.96682 -82.53016 40 ft 22 kts 182°
2026-05-06 02:09 27.96531 -82.53021 40 ft 21 kts 182°
2026-05-06 02:09 27.96452 -82.53004 40 ft 4 kts 124°
2026-05-06 02:09 27.96451 -82.53003 40 ft 0 kts 122°
2026-05-06 02:11 27.96447 -82.52989 39 ft 7 kts 107°
2026-05-06 02:11 27.96447 -82.52911 35 ft 11 kts 63°
2026-05-06 02:11 27.96471 -82.52899 36 ft 0 kts
2026-05-06 02:11 27.96565 -82.52895 36 ft 46 kts
2026-05-06 02:12 27.97134 -82.52875 37 ft 115 kts
2026-05-06 02:12 27.98127 -82.52838 51 ft 168 kts
2026-05-06 02:12 27.99352 -82.52767 631 ft 175 kts
2026-05-06 02:12 28.00537 -82.52701 1574 ft 166 kts
2026-05-06 02:13 28.01709 -82.52656 2210 ft 176 kts
2026-05-06 02:13 28.03053 -82.52664 2492 ft 209 kts
2026-05-06 02:13 28.04595 -82.52678 2746 ft 235 kts
2026-05-06 02:13 28.06255 -82.52929 3199 ft 250 kts 337°
2026-05-06 02:14 28.07743 -82.53979 3850 ft 254 kts 326°
2026-05-06 02:14 28.09212 -82.55141 4430 ft 266 kts 326°
2026-05-06 02:14 28.10779 -82.56358 5010 ft 278 kts 326°
2026-05-06 02:14 28.12390 -82.57588 5880 ft 280 kts 326°
2026-05-06 02:15 28.14012 -82.58808 6813 ft 280 kts 325°
2026-05-06 02:15 28.15621 -82.60000 7898 ft 273 kts 326°
2026-05-06 02:15 28.17215 -82.61171 8884 ft 273 kts 326°
2026-05-06 02:15 28.18807 -82.62334 9930 ft 271 kts 326°
2026-05-06 02:16 28.20409 -82.63501 10660 ft 281 kts 327°
2026-05-06 02:16 28.22134 -82.64756 10855 ft 308 kts 327°
2026-05-06 02:16 28.23984 -82.66100 11038 ft 332 kts 327°
2026-05-06 02:16 28.26023 -82.67580 11218 ft 354 kts 327°
2026-05-06 02:17 28.28102 -82.69089 11690 ft 364 kts 327°
2026-05-06 02:17 28.30249 -82.70646 12374 ft 367 kts 327°
2026-05-06 02:17 28.32402 -82.72209 13101 ft 369 kts 327°
2026-05-06 02:17 28.34575 -82.73787 13798 ft 372 kts 327°
2026-05-06 02:18 28.36766 -82.75379 14390 ft 376 kts 327°
2026-05-06 02:18 28.38993 -82.76955 14975 ft 379 kts 330°
2026-05-06 02:18 28.41407 -82.78183 15581 ft 382 kts 339°
2026-05-06 02:18 28.43980 -82.79002 16155 ft 387 kts 347°
2026-05-06 02:19 28.46659 -82.79448 16716 ft 391 kts 350°
2026-05-06 02:19 28.49365 -82.79843 17263 ft 394 kts 350°
2026-05-06 02:19 28.52095 -82.80251 17782 ft 397 kts 349°
2026-05-06 02:19 28.54844 -82.80683 18306 ft 400 kts 349°
2026-05-06 02:20 28.60388 -82.81610 19195 ft 405 kts 348°
2026-05-06 02:20 28.63176 -82.82116 19649 ft 406 kts 348°
2026-05-06 02:20 28.65967 -82.82629 20083 ft 408 kts 347°
2026-05-06 02:21 28.68779 -82.83148 20483 ft 410 kts 347°
2026-05-06 02:21 28.71606 -82.83667 20877 ft 413 kts 347°
2026-05-06 02:21 28.74452 -82.84188 21257 ft 415 kts 347°
2026-05-06 02:21 28.77309 -82.84709 21639 ft 417 kts 347°
2026-05-06 02:22 28.80179 -82.85231 21995 ft 419 kts 347°
2026-05-06 02:22 28.83064 -82.85756 22347 ft 421 kts 347°
2026-05-06 02:22 28.85965 -82.86283 22677 ft 423 kts 347°
2026-05-06 02:22 28.88878 -82.86813 23001 ft 425 kts 347°
2026-05-06 02:23 28.91801 -82.87345 23306 ft 427 kts 347°
2026-05-06 02:23 28.94740 -82.87881 23600 ft 429 kts 347°
2026-05-06 02:23 28.97693 -82.88419 23845 ft 430 kts 347°
2026-05-06 02:23 29.00654 -82.88959 24101 ft 431 kts 347°
2026-05-06 02:24 29.03619 -82.89499 24366 ft 432 kts 347°
2026-05-06 02:24 29.06590 -82.90042 24609 ft 433 kts 347°
2026-05-06 02:24 29.09569 -82.90586 24845 ft 434 kts 347°
2026-05-06 02:24 29.12561 -82.91133 25080 ft 435 kts 347°
2026-05-06 02:25 29.15554 -82.91681 25321 ft 436 kts 347°
2026-05-06 02:25 29.18556 -82.92230 25545 ft 437 kts 347°
2026-05-06 02:25 29.21566 -82.92781 25776 ft 438 kts 346°
2026-05-06 02:25 29.24581 -82.93334 25986 ft 440 kts 346°
2026-05-06 02:26 29.27606 -82.93889 26205 ft 440 kts 346°
2026-05-06 02:26 29.30632 -82.94444 26436 ft 441 kts 346°
2026-05-06 02:26 29.33664 -82.95000 26651 ft 442 kts 346°
2026-05-06 02:26 29.36704 -82.95559 26851 ft 443 kts 346°
2026-05-06 02:27 29.39749 -82.96118 27050 ft 444 kts 346°
2026-05-06 02:27 29.42801 -82.96680 27274 ft 444 kts 346°
2026-05-06 02:27 29.45846 -82.97239 27593 ft 442 kts 346°
2026-05-06 02:27 29.48874 -82.97796 27967 ft 440 kts 346°
2026-05-06 02:28 29.51850 -82.98505 28339 ft 434 kts 340°
2026-05-06 02:28 29.54671 -82.99649 28710 ft 428 kts 334°
2026-05-06 02:28 29.57371 -83.00950 29105 ft 426 kts 333°
2026-05-06 02:28 29.60132 -83.02290 29504 ft 424 kts 333°
2026-05-06 02:29 29.62808 -83.03584 29936 ft 422 kts 333°
2026-05-06 02:29 29.65507 -83.04883 30357 ft 420 kts 333°
2026-05-06 02:29 29.68196 -83.06170 30742 ft 418 kts 333°
2026-05-06 02:29 29.70878 -83.07449 31134 ft 416 kts 333°
2026-05-06 02:30 29.73546 -83.08721 31520 ft 415 kts 333°
2026-05-06 02:30 29.76208 -83.09989 31928 ft 413 kts 333°
2026-05-06 02:30 29.78866 -83.11256 32036 ft 414 kts 333°
2026-05-06 02:31 29.84175 -83.13788 32056 ft 412 kts 333°
2026-05-06 02:31 29.89469 -83.16316 32075 ft 412 kts 333°
2026-05-06 02:32 29.94761 -83.18846 32061 ft 411 kts 333°
2026-05-06 02:32 30.00044 -83.21375 32062 ft 411 kts 332°
2026-05-06 02:33 30.05320 -83.23904 32074 ft 411 kts 332°
2026-05-06 02:33 30.07069 -83.24743 32074 ft 411 kts 332°
2026-05-06 02:34 30.15871 -83.28970 32068 ft 410 kts 332°
2026-05-06 02:34 30.21146 -83.31506 32068 ft 410 kts 332°
2026-05-06 02:35 30.26418 -83.34046 32066 ft 410 kts 332°
2026-05-06 02:35 30.31683 -83.36588 32065 ft 410 kts 332°
2026-05-06 02:36 30.36944 -83.39133 32062 ft 410 kts 332°
2026-05-06 02:36 30.42170 -83.41664 32062 ft 410 kts 332°
2026-05-06 02:37 30.47431 -83.44215 32068 ft 410 kts 332°
2026-05-06 02:37 30.52695 -83.46771 32063 ft 410 kts 332°
2026-05-06 02:38 30.57962 -83.49330 32067 ft 410 kts 332°
2026-05-06 02:38 30.63232 -83.51894 32055 ft 411 kts 332°
2026-05-06 02:39 30.68498 -83.54459 32066 ft 410 kts 332°
2026-05-06 02:39 30.73764 -83.57027 32063 ft 410 kts 332°
2026-05-06 02:40 30.79026 -83.59596 32071 ft 410 kts 332°
2026-05-06 02:40 30.83403 -83.61736 32069 ft 410 kts 332°
2026-05-06 02:41 30.88666 -83.64311 32069 ft 410 kts 332°
2026-05-06 02:41 30.93923 -83.66887 32072 ft 410 kts 331°
2026-05-06 02:42 30.99183 -83.69467 32072 ft 410 kts 331°
2026-05-06 02:42 31.04434 -83.72045 32064 ft 410 kts 331°
2026-05-06 02:43 31.09689 -83.74630 32065 ft 410 kts 331°
2026-05-06 02:43 31.14941 -83.77215 32066 ft 410 kts 331°
2026-05-06 02:44 31.20191 -83.79803 32067 ft 409 kts 331°
2026-05-06 02:44 31.25439 -83.82393 32063 ft 410 kts 331°
2026-05-06 02:45 31.30656 -83.84971 32057 ft 410 kts 331°
2026-05-06 02:45 31.35903 -83.87566 32056 ft 410 kts 331°
2026-05-06 02:46 31.41188 -83.90184 32051 ft 409 kts 331°
2026-05-06 02:46 31.46395 -83.92766 32055 ft 409 kts 331°
2026-05-06 02:47 31.51660 -83.95326 32049 ft 412 kts 334°
2026-05-06 02:47 31.57306 -83.96891 32057 ft 420 kts 342°
2026-05-06 02:48 31.63056 -83.98124 32047 ft 420 kts 342°
2026-05-06 02:48 31.68798 -83.99372 32046 ft 420 kts 342°
2026-05-06 02:49 31.74538 -84.00640 32050 ft 420 kts 341°
2026-05-06 02:49 31.80272 -84.01917 32049 ft 419 kts 341°
2026-05-06 02:50 31.86001 -84.03196 32033 ft 419 kts 341°
2026-05-06 02:50 31.91735 -84.04477 32026 ft 419 kts 341°
2026-05-06 02:51 31.97463 -84.05759 32026 ft 419 kts 341°
2026-05-06 02:51 32.03187 -84.07041 32026 ft 419 kts 341°
2026-05-06 02:52 32.08909 -84.08325 32020 ft 419 kts 341°
2026-05-06 02:52 32.14628 -84.09609 32021 ft 419 kts 341°
2026-05-06 02:53 32.20352 -84.10896 32024 ft 419 kts 341°
2026-05-06 02:53 32.26073 -84.12184 32028 ft 418 kts 341°
2026-05-06 02:54 32.31794 -84.13474 32026 ft 419 kts 341°
2026-05-06 02:54 32.37516 -84.14766 32026 ft 419 kts 341°
2026-05-06 02:55 32.43239 -84.16060 32027 ft 419 kts 341°
2026-05-06 02:55 32.48959 -84.17354 32033 ft 419 kts 341°
2026-05-06 02:56 32.54683 -84.18651 32028 ft 418 kts 341°
2026-05-06 02:56 32.60397 -84.19947 32029 ft 418 kts 341°
2026-05-06 02:57 32.66110 -84.21246 32028 ft 418 kts 341°
2026-05-06 02:57 32.71821 -84.22545 32031 ft 418 kts 341°
2026-05-06 02:58 32.77492 -84.23837 32024 ft 418 kts 341°
2026-05-06 02:58 32.83198 -84.25138 32028 ft 417 kts 341°
2026-05-06 02:59 32.88899 -84.26440 32033 ft 417 kts 341°
2026-05-06 02:59 32.94605 -84.27745 32030 ft 418 kts 341°
2026-05-06 03:00 33.00314 -84.29053 32030 ft 418 kts 341°
2026-05-06 03:00 33.06018 -84.30361 32030 ft 418 kts 341°
2026-05-06 03:01 33.11726 -84.31671 32047 ft 418 kts 341°
2026-05-06 03:01 33.17431 -84.32983 32051 ft 417 kts 341°
2026-05-06 03:02 33.23137 -84.34296 32055 ft 418 kts 341°
2026-05-06 03:02 33.28843 -84.35611 32065 ft 417 kts 340°
2026-05-06 03:03 33.34547 -84.36928 32067 ft 418 kts 340°
2026-05-06 03:03 33.40251 -84.38246 32068 ft 417 kts 340°
2026-05-06 03:04 33.45955 -84.39567 32065 ft 418 kts 340°
2026-05-06 03:04 33.51658 -84.40888 32025 ft 417 kts 340°
2026-05-06 03:05 33.57357 -84.42211 32032 ft 417 kts 340°
2026-05-06 03:05 33.63056 -84.43566 32037 ft 415 kts 338°
2026-05-06 03:06 33.68360 -84.45875 32031 ft 407 kts 330°
2026-05-06 03:06 33.73608 -84.48440 32021 ft 408 kts 330°
2026-05-06 03:07 33.78879 -84.50957 32024 ft 408 kts 331°
2026-05-06 03:07 33.84175 -84.53442 32019 ft 408 kts 331°
2026-05-06 03:08 33.89465 -84.55921 32004 ft 408 kts 331°
2026-05-06 03:08 33.94758 -84.58405 32006 ft 408 kts 331°
2026-05-06 03:09 33.99968 -84.61055 32021 ft 404 kts 327°
2026-05-06 03:09 34.04969 -84.64130 32029 ft 403 kts 326°
2026-05-06 03:10 34.09949 -84.67250 32028 ft 404 kts 326°
2026-05-06 03:10 34.14949 -84.70338 32019 ft 404 kts 326°
2026-05-06 03:11 34.19965 -84.73411 32012 ft 404 kts 326°
2026-05-06 03:11 34.24983 -84.76482 32015 ft 404 kts 326°
2026-05-06 03:12 34.30005 -84.79559 32004 ft 405 kts 326°
2026-05-06 03:12 34.35032 -84.82644 31999 ft 405 kts 326°
2026-05-06 03:13 34.40055 -84.85731 32002 ft 405 kts 326°
2026-05-06 03:13 34.45041 -84.88799 32002 ft 405 kts 326°
2026-05-06 03:14 34.50060 -84.91892 32005 ft 405 kts 326°
2026-05-06 03:14 34.55081 -84.94991 32006 ft 405 kts 326°
2026-05-06 03:15 34.60109 -84.98098 31990 ft 405 kts 326°
2026-05-06 03:15 34.65128 -85.01213 31995 ft 404 kts 324°
2026-05-06 03:16 34.69903 -85.04731 32006 ft 400 kts 320°
2026-05-06 03:16 34.74574 -85.08435 31986 ft 401 kts 320°
2026-05-06 03:17 34.79263 -85.12123 31984 ft 402 kts 320°
2026-05-06 03:17 34.83975 -85.15791 31955 ft 403 kts 321°
2026-05-06 03:18 34.88699 -85.19457 31966 ft 402 kts 321°
2026-05-06 03:18 34.93422 -85.23126 31960 ft 403 kts 321°
2026-05-06 03:18 34.95782 -85.24966 31176 ft 412 kts 321°
2026-05-06 03:19 34.98190 -85.26841 30334 ft 412 kts 321°
2026-05-06 03:19 35.00613 -85.28728 29281 ft 414 kts 321°
2026-05-06 03:19 35.03049 -85.30627 28128 ft 417 kts 321°
2026-05-06 03:19 35.05489 -85.32529 27330 ft 413 kts 322°
2026-05-06 03:20 35.10290 -85.36273 25789 ft 406 kts 322°
2026-05-06 03:20 35.12588 -85.38070 25066 ft 403 kts 322°
2026-05-06 03:20 35.14947 -85.39916 24295 ft 402 kts 321°
2026-05-06 03:21 35.17098 -85.42015 23871 ft 388 kts 311°
2026-05-06 03:21 35.18987 -85.44378 23505 ft 394 kts 310°
2026-05-06 03:21 35.20893 -85.46853 23089 ft 403 kts 309°
2026-05-06 03:21 35.22820 -85.49365 22759 ft 406 kts 309°
2026-05-06 03:22 35.24745 -85.51862 22395 ft 402 kts 309°
2026-05-06 03:22 35.26659 -85.54327 22114 ft 398 kts 310°
2026-05-06 03:22 35.28568 -85.56777 21787 ft 397 kts 310°
2026-05-06 03:22 35.30471 -85.59214 21481 ft 396 kts 309°
2026-05-06 03:23 35.32377 -85.61652 21168 ft 395 kts 310°
2026-05-06 03:23 35.34275 -85.64080 20851 ft 394 kts 309°
2026-05-06 03:23 35.36165 -85.66499 20541 ft 392 kts 309°
2026-05-06 03:23 35.38044 -85.68906 20234 ft 390 kts 309°
2026-05-06 03:24 35.39916 -85.71305 19928 ft 388 kts 309°
2026-05-06 03:24 35.41776 -85.73692 19628 ft 386 kts 309°
2026-05-06 03:24 35.43625 -85.76066 19322 ft 384 kts 309°
2026-05-06 03:24 35.45463 -85.78428 19022 ft 381 kts 309°
2026-05-06 03:25 35.47288 -85.80775 18711 ft 379 kts 309°
2026-05-06 03:25 35.49104 -85.83113 18411 ft 377 kts 309°
2026-05-06 03:25 35.50910 -85.85439 18115 ft 375 kts 309°
2026-05-06 03:25 35.52690 -85.87731 17772 ft 365 kts 309°
2026-05-06 03:26 35.54410 -85.89943 17470 ft 351 kts 308°
2026-05-06 03:26 35.56056 -85.92079 17175 ft 338 kts 308°
2026-05-06 03:26 35.57621 -85.94163 16911 ft 326 kts 307°
2026-05-06 03:26 35.59142 -85.96209 16675 ft 322 kts 307°
2026-05-06 03:27 35.60650 -85.98241 16426 ft 322 kts 307°
2026-05-06 03:27 35.62159 -86.00272 16239 ft 322 kts 307°
2026-05-06 03:27 35.63678 -86.02311 16021 ft 325 kts 307°
2026-05-06 03:27 35.65203 -86.04356 15770 ft 324 kts 307°
2026-05-06 03:28 35.66720 -86.06389 15503 ft 321 kts 307°
2026-05-06 03:28 35.68220 -86.08400 15250 ft 317 kts 307°
2026-05-06 03:28 35.69707 -86.10393 15006 ft 314 kts 307°
2026-05-06 03:28 35.71155 -86.12344 14763 ft 311 kts 306°
2026-05-06 03:29 35.72076 -86.13728 14595 ft 308 kts 303°
2026-05-06 03:29 35.73774 -86.16547 14257 ft 306 kts 301°
2026-05-06 03:29 35.74998 -86.18636 14018 ft 304 kts 301°
2026-05-06 03:29 35.76236 -86.20743 13776 ft 303 kts 301°
2026-05-06 03:30 35.77472 -86.22837 13520 ft 302 kts 301°
2026-05-06 03:30 35.78712 -86.24926 13255 ft 301 kts 301°
2026-05-06 03:30 35.79950 -86.27004 13013 ft 301 kts 301°
2026-05-06 03:30 35.81189 -86.29079 12761 ft 301 kts 301°
2026-05-06 03:31 35.82031 -86.30490 12610 ft 303 kts 301°
2026-05-06 03:31 35.83698 -86.33282 12285 ft 307 kts 301°
2026-05-06 03:31 35.84553 -86.34712 12119 ft 307 kts 301°
2026-05-06 03:31 35.85801 -86.36800 11877 ft 306 kts 301°
2026-05-06 03:32 35.87061 -86.38910 11639 ft 306 kts 301°
2026-05-06 03:32 35.88321 -86.41020 11394 ft 306 kts 301°
2026-05-06 03:32 35.89580 -86.43131 11156 ft 305 kts 301°
2026-05-06 03:32 35.90839 -86.45241 10914 ft 305 kts 301°
2026-05-06 03:33 35.92085 -86.47330 10665 ft 298 kts 301°
2026-05-06 03:33 35.93293 -86.49353 10449 ft 288 kts 300°
2026-05-06 03:33 35.94460 -86.51311 10221 ft 278 kts 300°
2026-05-06 03:33 35.95589 -86.53208 9998 ft 270 kts 300°
2026-05-06 03:34 35.96669 -86.55021 9904 ft 257 kts 300°
2026-05-06 03:34 35.97721 -86.56791 9624 ft 252 kts 299°
2026-05-06 03:34 35.98857 -86.58424 9352 ft 255 kts 315°
2026-05-06 03:34 36.00478 -86.59373 9157 ft 264 kts 338°
2026-05-06 03:35 36.02346 -86.59500 8940 ft 278 kts
2026-05-06 03:35 36.04246 -86.58849 8723 ft 286 kts 11°
2026-05-06 03:35 36.06140 -86.58061 8490 ft 287 kts 11°
2026-05-06 03:35 36.08013 -86.57282 8257 ft 282 kts 11°
2026-05-06 03:36 36.09856 -86.56527 8034 ft 276 kts 11°
2026-05-06 03:36 36.11689 -86.55885 7645 ft 275 kts
2026-05-06 03:36 36.13557 -86.55421 7319 ft 274 kts
2026-05-06 03:36 36.15441 -86.55016 6967 ft 276 kts
2026-05-06 03:37 36.17322 -86.54391 6587 ft 287 kts 17°
2026-05-06 03:37 36.19152 -86.53363 6241 ft 291 kts 18°
2026-05-06 03:37 36.20998 -86.52314 5858 ft 293 kts 19°
2026-05-06 03:37 36.22852 -86.51273 5540 ft 291 kts 19°
2026-05-06 03:38 36.24697 -86.50252 5280 ft 290 kts 19°
2026-05-06 03:38 36.26523 -86.49244 5053 ft 285 kts 18°
2026-05-06 03:38 36.28319 -86.48274 4904 ft 276 kts 11°
2026-05-06 03:38 36.30103 -86.48167 4807 ft 245 kts 331°
2026-05-06 03:39 36.31401 -86.49246 4748 ft 209 kts 292°
2026-05-06 03:39 36.31847 -86.50752 4657 ft 170 kts 259°
2026-05-06 03:39 36.31792 -86.52143 4577 ft 156 kts 257°
2026-05-06 03:39 36.31743 -86.53458 4496 ft 152 kts 258°
2026-05-06 03:40 36.31692 -86.54764 4386 ft 150 kts 258°
2026-05-06 03:40 36.31638 -86.56053 4279 ft 149 kts 258°
2026-05-06 03:40 36.31456 -86.57277 4137 ft 141 kts 231°
2026-05-06 03:40 36.30657 -86.57932 4096 ft 141 kts 212°
2026-05-06 03:41 36.29881 -86.58656 3943 ft 136 kts 218°
2026-05-06 03:41 36.29070 -86.59219 3788 ft 131 kts 208°
2026-05-06 03:41 36.28247 -86.59703 3607 ft 126 kts 207°
2026-05-06 03:41 36.27464 -86.60145 3448 ft 124 kts 205°
2026-05-06 03:42 36.26654 -86.60538 3303 ft 126 kts 203°
2026-05-06 03:42 36.25854 -86.60887 3125 ft 116 kts 202°
2026-05-06 03:42 36.25137 -86.61186 2981 ft 104 kts 202°
2026-05-06 03:42 36.24475 -86.61456 2851 ft 96 kts 201°
2026-05-06 03:43 36.23839 -86.61715 2732 ft 96 kts 201°
2026-05-06 03:43 36.23212 -86.61967 2613 ft 94 kts 201°
2026-05-06 03:43 36.22594 -86.62216 2499 ft 93 kts 200°
2026-05-06 03:43 36.21968 -86.62469 2366 ft 95 kts 200°
2026-05-06 03:44 36.21321 -86.62730 2232 ft 101 kts 199°
2026-05-06 03:44 36.20663 -86.62994 2090 ft 97 kts 196°
2026-05-06 03:44 36.20020 -86.63252 1959 ft 100 kts 199°
2026-05-06 03:44 36.19335 -86.63525 1855 ft 108 kts 198°
2026-05-06 03:45 36.18610 -86.63821 1708 ft 108 kts 194°
2026-05-06 03:45 36.17899 -86.64104 1540 ft 108 kts 197°
2026-05-06 03:45 36.17152 -86.64403 1393 ft 117 kts 198°
2026-05-06 03:45 36.16375 -86.64716 1225 ft 120 kts 197°
2026-05-06 03:46 36.15572 -86.65039 1044 ft 121 kts 196°
2026-05-06 03:46 36.14776 -86.65360 899 ft 121 kts 195°
2026-05-06 03:46 36.13952 -86.65692 730 ft 127 kts 198°
2026-05-06 03:46 36.13126 -86.66021 565 ft 122 kts 199°
2026-05-06 03:47 36.12392 -86.66319 570 ft 92 kts 198°
2026-05-06 03:47 36.11927 -86.66507 580 ft 37 kts 198°
2026-05-06 03:47 36.11853 -86.66644 583 ft 21 kts 301°
2026-05-06 03:47 36.11957 -86.66636 581 ft 15 kts 16°
2026-05-06 03:48 36.12064 -86.66594 578 ft 18 kts 17°
2026-05-06 03:48 36.12199 -86.66559 570 ft 21 kts 340°
2026-05-06 03:48 36.12245 -86.66682 574 ft 16 kts 289°
2026-05-06 03:48 36.12279 -86.66809 579 ft 16 kts 287°
2026-05-06 03:49 36.12336 -86.66931 577 ft 17 kts 312°
2026-05-06 03:49 36.12429 -86.66990 578 ft 16 kts 22°
2026-05-06 03:49 36.12533 -86.66919 577 ft 18 kts 30°
2026-05-06 03:49 36.12639 -86.66830 567 ft 19 kts 40°
2026-05-06 03:50 36.12737 -86.66727 569 ft 17 kts 30°
2026-05-06 03:50 36.12844 -86.66744 566 ft 16 kts 314°
2026-05-06 03:50 36.12923 -86.66759 570 ft 9 kts 41°
2026-05-06 03:50 36.12929 -86.66754 566 ft 0 kts 40°